North Platte, NE

2:43 AM CDT on October 19, 2017 (GMT -0500)
North Platte Regional-Bird

Weather History for KLBF - December, 2013

Change the Weather History Date:

Tuesday, December 24, 2013

  Actual Average Record
Temperature  
Mean Temperature 23 °F 24 °F  
Max Temperature 41 °F 38 °F 62 °F (1922)
Min Temperature 5 °F 11 °F -27 °F (1879)
Degree Days  
Heating Degree Days 42 41  
Month to date heating degree days 1027 945  
Since 1 July heating degree days 2512 2496  
Cooling Degree Days 0 0  
Month to date cooling degree days 0 0  
Year to date cooling degree days 998 768  
Moisture  
Dew Point 19 °F    
Average Humidity 83    
Maximum Humidity 96    
Minimum Humidity 69    
Precipitation  
Precipitation 0.00 in 0.01 in 0.37 in (1973)
Month to date precipitation 0.16 0.32  
Year to date precipitation 21.77 20.14  
Snow  
Snow 0.00 in 0.10 in 5.80 in (1973)
Month to date snowfall 3.6 3.5  
Since 1 July snowfall 6.7 9.7  
Snow Depth 1.00 in    
Sea Level Pressure  
Sea Level Pressure 30.20 in    
Wind  
Wind Speed 7 mph (NW)    
Max Wind Speed 22 mph    
Max Gust Speed 28 mph    
Visibility 10 miles    
Events      
T = Trace of Precipitation, MM = Missing Value Source: NWS Daily Summary

Daily Weather History Graph

Daily Weather History Graph

Search for Another Location

Airport or City:

Trip Planner

Search our weather history database for the weather conditions in past years. The results will help you decide how hot, cold, wet, or windy it might be!

Date:

Astronomy

Dec. 24, 2013 Rise Set
Actual Time 8:06 AM CST 5:19 PM CST
Civil Twilight 7:34 AM CST 5:50 PM CST
Nautical Twilight 7:00 AM CST 6:24 PM CST
Astronomical Twilight 6:26 AM CST 6:58 PM CST
Moon No Moon Rise 11:57 AM CST (12/24)
Length of Visible Light 10h 15m
Length of Day
9h 12m
Waning Gibbous, 58% of the Moon is Illuminated
Dec 24
Waning Gibbous
Dec 25
Last Quarter
Jan 1
New
Jan 7
First Quarter
Jan 15
Full

Hourly Weather History & Observations

Time (CST) Temp. Windchill Dew Point Humidity Pressure Visibility Wind Dir Wind Speed Gust Speed Precip Events Conditions
12:53 AM 6.1 °F -4.3 °F 3.0 °F 87% 30.32 in 10.0 mi East 5.8 mph - N/A   Clear
1:53 AM 7.0 °F -4.5 °F 3.0 °F 84% 30.28 in 10.0 mi ESE 6.9 mph - N/A   Clear
2:53 AM 7.0 °F -3.3 °F 3.9 °F 87% 30.27 in 10.0 mi ESE 5.8 mph - N/A   Clear
3:53 AM 7.0 °F 0.1 °F 3.9 °F 87% 30.24 in 9.0 mi SE 3.5 mph - N/A   Clear
4:53 AM 8.1 °F - 3.0 °F 80% 30.21 in 9.0 mi Calm Calm - N/A   Clear
5:53 AM 10.0 °F 3.6 °F 6.1 °F 84% 30.19 in 9.0 mi ESE 3.5 mph - N/A   Clear
6:53 AM 14.0 °F - 9.0 °F 80% 30.17 in 8.0 mi Calm Calm - N/A   Partly Cloudy
7:53 AM 17.1 °F 8.7 °F 12.9 °F 84% 30.15 in 8.0 mi ESE 5.8 mph - N/A   Overcast
8:53 AM 18.0 °F - 14.0 °F 84% 30.16 in 7.0 mi Calm Calm - N/A   Overcast
9:53 AM 19.0 °F 8.2 °F 14.0 °F 81% 30.15 in 7.0 mi South 9.2 mph - N/A   Mostly Cloudy
10:53 AM 21.9 °F 12.5 °F 17.1 °F 82% 30.14 in 8.0 mi SSW 8.1 mph - N/A   Partly Cloudy
11:53 AM 25.0 °F 17.1 °F 19.0 °F 78% 30.12 in 10.0 mi SSW 6.9 mph - N/A   Clear
12:53 PM 30.0 °F 21.7 °F 21.0 °F 69% 30.10 in 10.0 mi West 9.2 mph - N/A   Clear
1:53 PM 34.0 °F 27.2 °F 25.0 °F 70% 30.09 in 10.0 mi WNW 8.1 mph - N/A   Mostly Cloudy
2:01 PM 35.6 °F 29.2 °F 24.8 °F 65% 29.99 in 10.0 mi WNW 8.1 mph - N/A   Scattered Clouds
2:09 PM 35.6 °F 30.7 °F 26.6 °F 70% 29.98 in 10.0 mi WNW 5.8 mph - N/A   Mostly Cloudy
2:53 PM 37.0 °F - 28.0 °F 70% 30.11 in 10.0 mi Calm Calm - N/A   Overcast
3:53 PM 39.9 °F 31.8 °F 33.1 °F 77% 30.15 in 10.0 mi NNW 15.0 mph 19.6 mph N/A   Overcast
4:53 PM 39.0 °F 31.4 °F 33.1 °F 79% 30.19 in 10.0 mi NW 12.7 mph - N/A   Overcast
5:53 PM 37.0 °F 28.5 °F 30.9 °F 79% 30.22 in 10.0 mi NNW 13.8 mph 24.2 mph N/A   Mostly Cloudy
6:01 PM 37.4 °F 28.9 °F 30.2 °F 75% 30.13 in 10.0 mi NNW 13.8 mph 24.2 mph N/A   Mostly Cloudy
6:53 PM 34.0 °F 28.0 °F 28.9 °F 82% 30.27 in 10.0 mi NW 6.9 mph - N/A   Overcast
7:01 PM 35.6 °F 28.0 °F 28.4 °F 75% 30.17 in 10.0 mi NNW 10.4 mph 17.3 mph N/A   Overcast
7:31 PM 33.8 °F 28.6 °F 28.4 °F 81% 30.18 in 10.0 mi NW 5.8 mph - N/A   Mostly Cloudy
7:53 PM 35.1 °F 29.3 °F 28.9 °F 78% 30.30 in 10.0 mi NNW 6.9 mph - N/A   Overcast
8:53 PM 27.0 °F 19.5 °F 24.1 °F 89% 30.34 in 10.0 mi NW 6.9 mph - N/A   Clear
9:53 PM 23.0 °F 14.7 °F 21.0 °F 92% 30.35 in 10.0 mi WNW 6.9 mph - N/A   Clear
10:53 PM 21.0 °F 11.4 °F 18.0 °F 88% 30.35 in 10.0 mi NW 8.1 mph - N/A   Clear
11:53 PM 18.0 °F 8.7 °F 16.0 °F 92% 30.37 in 10.0 mi NW 6.9 mph - N/A   Clear